Time,TemperatureF,DewpointF,PressureIn,WindDirection,WindDirectionDegrees,WindSpeedMPH,WindSpeedGustMPH,Humidity,HourlyPrecipIn,Conditions,Clouds,dailyrainin,SoftwareType,DateUTC
2013-06-12 00:03:00,72.0,63.0,29.64,WNW,290,1.0,-999.0,74,-99.99,,,-99.99,,2013-06-12 04:03:00,
2013-06-12 00:13:00,72.0,63.0,29.64,WNW,290,1.0,-999.0,74,-99.99,,,-99.99,,2013-06-12 04:13:00,
2013-06-12 00:23:00,71.0,62.0,29.65,NW,309,0.0,-999.0,74,-99.99,,,-99.99,,2013-06-12 04:23:00,
2013-06-12 00:34:00,71.0,63.0,29.65,NNW,329,0.0,-999.0,75,-99.99,,,-99.99,,2013-06-12 04:34:00,
2013-06-12 00:42:00,71.0,63.0,29.65,NNW,329,0.0,-999.0,75,-99.99,,,-99.99,,2013-06-12 04:42:00,
2013-06-12 00:52:00,70.0,62.0,29.65,SSW,211,0.0,-999.0,76,-99.99,,,-99.99,,2013-06-12 04:52:00,
2013-06-12 01:03:00,70.0,63.0,29.65,WNW,287,0.0,-999.0,78,-99.99,,,-99.99,,2013-06-12 05:03:00,
2013-06-12 01:12:00,70.0,63.0,29.65,SSW,204,0.0,-999.0,78,-99.99,,,-99.99,,2013-06-12 05:12:00,
2013-06-12 01:22:00,70.0,63.0,29.65,SSW,204,0.0,-999.0,78,-99.99,,,-99.99,,2013-06-12 05:22:00,
2013-06-12 01:32:00,69.0,62.0,29.65,WSW,250,0.0,-999.0,79,-99.99,,,-99.99,,2013-06-12 05:32:00,
2013-06-12 01:42:00,69.0,63.0,29.65,North,351,0.0,-999.0,80,-99.99,,,-99.99,,2013-06-12 05:42:00,
2013-06-12 01:52:00,69.0,63.0,29.65,North,351,0.0,-999.0,80,-99.99,,,-99.99,,2013-06-12 05:52:00,
2013-06-12 02:02:00,68.0,62.0,29.65,South,178,0.0,-999.0,80,-99.99,,,-99.99,,2013-06-12 06:02:00,
2013-06-12 02:12:00,68.0,62.0,29.65,South,178,0.0,-999.0,80,-99.99,,,-99.99,,2013-06-12 06:12:00,
2013-06-12 02:22:00,68.0,62.0,29.65,West,267,0.0,-999.0,80,-99.99,,,-99.99,,2013-06-12 06:22:00,
2013-06-12 02:32:00,68.0,61.0,29.64,NNE,24,0.0,-999.0,79,-99.99,,,-99.99,,2013-06-12 06:32:00,
2013-06-12 02:42:00,68.0,61.0,29.64,NNE,24,0.0,-999.0,79,-99.99,,,-99.99,,2013-06-12 06:42:00,
2013-06-12 02:52:00,68.0,61.0,29.64,West,273,0.0,-999.0,79,-99.99,,,-99.99,,2013-06-12 06:52:00,
2013-06-12 03:02:00,68.0,61.0,29.64,West,259,1.0,-999.0,79,-99.99,,,-99.99,,2013-06-12 07:02:00,
2013-06-12 03:12:00,68.0,61.0,29.64,SW,232,0.0,-999.0,79,-99.99,,,-99.99,,2013-06-12 07:12:00,
2013-06-12 03:22:00,68.0,61.0,29.64,SW,232,0.0,-999.0,79,-99.99,,,-99.99,,2013-06-12 07:22:00,
2013-06-12 03:33:00,68.0,61.0,29.64,SSE,165,1.0,-999.0,78,-99.99,,,-99.99,,2013-06-12 07:33:00,
2013-06-12 03:43:00,68.0,61.0,29.64,NNW,336,1.0,-999.0,78,-99.99,,,-99.99,,2013-06-12 07:43:00,
2013-06-12 03:53:00,68.0,61.0,29.64,NNW,336,1.0,-999.0,78,-99.99,,,-99.99,,2013-06-12 07:53:00,
2013-06-12 04:02:00,68.0,61.0,29.64,SSW,205,1.0,-999.0,78,-99.99,,,-99.99,,2013-06-12 08:02:00,
2013-06-12 04:12:00,68.0,61.0,29.64,West,271,1.0,-999.0,77,-99.99,,,-99.99,,2013-06-12 08:12:00,
2013-06-12 04:22:00,68.0,61.0,29.64,SW,234,1.0,-999.0,77,-99.99,,,-99.99,,2013-06-12 08:22:00,
2013-06-12 04:33:00,68.0,61.0,29.64,SW,234,1.0,-999.0,77,-99.99,,,-99.99,,2013-06-12 08:33:00,
2013-06-12 04:43:00,67.0,60.0,29.65,SW,221,1.0,-999.0,79,-99.99,,,-99.99,,2013-06-12 08:43:00,
2013-06-12 04:53:00,67.0,60.0,29.65,SW,221,1.0,-999.0,79,-99.99,,,-99.99,,2013-06-12 08:53:00,
2013-06-12 05:01:00,67.0,60.0,29.65,WSW,244,1.0,-999.0,79,-99.99,,,-99.99,,2013-06-12 09:01:00,
2013-06-12 05:12:00,67.0,61.0,29.66,WSW,248,1.0,-999.0,80,-99.99,,,-99.99,,2013-06-12 09:12:00,
2013-06-12 05:22:00,66.0,60.0,29.66,ENE,63,0.0,-999.0,81,-99.99,,,-99.99,,2013-06-12 09:22:00,
2013-06-12 05:33:00,66.0,60.0,29.66,ENE,63,0.0,-999.0,81,-99.99,,,-99.99,,2013-06-12 09:33:00,
2013-06-12 05:43:00,66.0,60.0,29.66,South,183,0.0,-999.0,81,-99.99,,,-99.99,,2013-06-12 09:43:00,
2013-06-12 05:53:00,66.0,60.0,29.66,South,183,0.0,-999.0,81,-99.99,,,-99.99,,2013-06-12 09:53:00,
2013-06-12 06:02:00,66.0,60.0,29.66,WSW,257,0.0,-999.0,82,-99.99,,,-99.99,,2013-06-12 10:02:00,
2013-06-12 06:12:00,66.0,61.0,29.66,West,274,0.0,-999.0,83,-99.99,,,-99.99,,2013-06-12 10:12:00,
2013-06-12 06:23:00,66.0,61.0,29.66,West,274,0.0,-999.0,83,-99.99,,,-99.99,,2013-06-12 10:23:00,
2013-06-12 06:33:00,66.0,61.0,29.66,WSW,248,1.0,-999.0,85,-99.99,,,-99.99,,2013-06-12 10:33:00,
2013-06-12 06:43:00,66.0,61.0,29.67,WNW,284,0.0,-999.0,85,-99.99,,,-99.99,,2013-06-12 10:43:00,
2013-06-12 06:53:00,66.0,61.0,29.67,WNW,284,0.0,-999.0,85,-99.99,,,-99.99,,2013-06-12 10:53:00,
2013-06-12 07:02:00,66.0,61.0,29.67,WSW,250,1.0,-999.0,85,-99.99,,,-99.99,,2013-06-12 11:02:00,
2013-06-12 07:12:00,66.0,62.0,29.68,ESE,112,1.0,-999.0,86,-99.99,,,-99.99,,2013-06-12 11:12:00,
2013-06-12 07:24:00,66.0,62.0,29.68,ESE,112,1.0,-999.0,86,-99.99,,,-99.99,,2013-06-12 11:24:00,
2013-06-12 07:33:00,67.0,62.0,29.68,West,263,1.0,-999.0,84,-99.99,,,-99.99,,2013-06-12 11:33:00,
2013-06-12 07:43:00,68.0,63.0,29.69,West,279,1.0,-999.0,84,-99.99,,,-99.99,,2013-06-12 11:43:00,
2013-06-12 07:53:00,68.0,63.0,29.69,West,279,1.0,-999.0,84,-99.99,,,-99.99,,2013-06-12 11:53:00,
2013-06-12 08:02:00,68.0,62.0,29.68,SE,139,2.0,-999.0,81,-99.99,,,-99.99,,2013-06-12 12:02:00,
2013-06-12 08:11:00,69.0,63.0,29.69,NNE,22,1.0,-999.0,80,-99.99,,,-99.99,,2013-06-12 12:11:00,
2013-06-12 08:23:00,69.0,63.0,29.69,NNE,22,1.0,-999.0,80,-99.99,,,-99.99,,2013-06-12 12:23:00,
2013-06-12 08:33:00,70.0,64.0,29.69,NNE,26,2.0,-999.0,80,-99.99,,,-99.99,,2013-06-12 12:33:00,
2013-06-12 08:43:00,70.0,63.0,29.69,East,90,1.0,-999.0,78,-99.99,,,-99.99,,2013-06-12 12:43:00,
2013-06-12 08:53:00,70.0,63.0,29.69,East,90,1.0,-999.0,78,-99.99,,,-99.99,,2013-06-12 12:53:00,
2013-06-12 09:02:00,70.0,63.0,29.69,East,90,1.0,-999.0,78,-99.99,,,-99.99,,2013-06-12 13:02:00,
2013-06-12 09:12:00,70.0,63.0,29.69,NNW,327,2.0,-999.0,79,-99.99,,,-99.99,,2013-06-12 13:12:00,
2013-06-12 09:22:00,70.0,63.0,29.69,WSW,242,2.0,-999.0,78,-99.99,,,-99.99,,2013-06-12 13:22:00,
2013-06-12 09:33:00,71.0,63.0,29.69,NNW,343,2.0,-999.0,76,-99.99,,,-99.99,,2013-06-12 13:33:00,
2013-06-12 09:43:00,71.0,63.0,29.69,SW,220,1.0,-999.0,76,-99.99,,,-99.99,,2013-06-12 13:43:00,
2013-06-12 09:53:00,71.0,63.0,29.69,SW,220,1.0,-999.0,76,-99.99,,,-99.99,,2013-06-12 13:53:00,
2013-06-12 10:02:00,71.0,63.0,29.69,SW,220,1.0,-999.0,76,-99.99,,,-99.99,,2013-06-12 14:02:00,
2013-06-12 10:11:00,72.0,62.0,29.68,WSW,238,2.0,-999.0,71,-99.99,,,-99.99,,2013-06-12 14:11:00,
2013-06-12 10:24:00,72.0,62.0,29.68,WSW,238,2.0,-999.0,71,-99.99,,,-99.99,,2013-06-12 14:24:00,
2013-06-12 10:33:00,72.0,62.0,29.68,WSW,238,2.0,-999.0,71,-99.99,,,-99.99,,2013-06-12 14:33:00,
2013-06-12 10:43:00,75.0,63.0,29.69,NNW,345,2.0,-999.0,67,-99.99,,,-99.99,,2013-06-12 14:43:00,
2013-06-12 10:53:00,75.0,63.0,29.69,NNW,345,2.0,-999.0,67,-99.99,,,-99.99,,2013-06-12 14:53:00,
2013-06-12 11:02:00,76.0,63.0,29.69,NNW,342,2.0,-999.0,65,-99.99,,,-99.99,,2013-06-12 15:02:00,
2013-06-12 11:12:00,76.0,63.0,29.69,NNW,342,2.0,-999.0,65,-99.99,,,-99.99,,2013-06-12 15:12:00,
2013-06-12 11:23:00,76.0,63.0,29.69,NNW,342,2.0,-999.0,65,-99.99,,,-99.99,,2013-06-12 15:23:00,
2013-06-12 11:33:00,77.0,62.0,29.69,NW,325,2.0,-999.0,59,-99.99,,,-99.99,,2013-06-12 15:33:00,
2013-06-12 11:43:00,78.0,62.0,29.69,NW,319,2.0,-999.0,59,-99.99,,,-99.99,,2013-06-12 15:43:00,
2013-06-12 11:52:00,78.0,62.0,29.69,NW,319,2.0,-999.0,59,-99.99,,,-99.99,,2013-06-12 15:52:00,
2013-06-12 12:02:00,78.0,62.0,29.69,NW,309,2.0,-999.0,58,-99.99,,,-99.99,,2013-06-12 16:02:00,
2013-06-12 12:12:00,78.0,62.0,29.69,NW,309,2.0,-999.0,58,-99.99,,,-99.99,,2013-06-12 16:12:00,
2013-06-12 12:22:00,78.0,59.0,29.70,North,360,3.0,-999.0,53,-99.99,,,-99.99,,2013-06-12 16:22:00,
2013-06-12 12:33:00,78.0,59.0,29.70,North,360,3.0,-999.0,53,-99.99,,,-99.99,,2013-06-12 16:33:00,
2013-06-12 12:43:00,80.0,62.0,29.70,SSE,168,2.0,-999.0,55,-99.99,,,-99.99,,2013-06-12 16:43:00,
2013-06-12 12:52:00,80.0,62.0,29.70,SSE,168,2.0,-999.0,55,-99.99,,,-99.99,,2013-06-12 16:52:00,
2013-06-12 13:02:00,80.0,62.0,29.70,WNW,302,3.0,-999.0,54,-99.99,,,-99.99,,2013-06-12 17:02:00,
2013-06-12 13:12:00,80.0,62.0,29.70,WNW,302,3.0,-999.0,54,-99.99,,,-99.99,,2013-06-12 17:12:00,
2013-06-12 13:23:00,80.0,61.0,29.70,NW,321,2.0,-999.0,53,-99.99,,,-99.99,,2013-06-12 17:23:00,
2013-06-12 13:33:00,80.0,61.0,29.70,NW,321,2.0,-999.0,53,-99.99,,,-99.99,,2013-06-12 17:33:00,
2013-06-12 13:42:00,80.0,61.0,29.70,NW,321,2.0,-999.0,53,-99.99,,,-99.99,,2013-06-12 17:42:00,
2013-06-12 13:52:00,80.0,61.0,29.70,NW,321,2.0,-999.0,53,-99.99,,,-99.99,,2013-06-12 17:52:00,
2013-06-12 14:02:00,82.0,63.0,29.69,NNW,336,3.0,-999.0,52,-99.99,,,-99.99,,2013-06-12 18:02:00,
2013-06-12 14:12:00,82.0,63.0,29.70,NNW,348,2.0,-999.0,53,-99.99,,,-99.99,,2013-06-12 18:12:00,
2013-06-12 14:22:00,82.0,63.0,29.70,NNW,348,2.0,-999.0,53,-99.99,,,-99.99,,2013-06-12 18:22:00,
2013-06-12 14:33:00,82.0,62.0,29.70,NW,317,2.0,-999.0,51,-99.99,,,-99.99,,2013-06-12 18:33:00,
2013-06-12 14:43:00,82.0,62.0,29.69,WSW,248,2.0,-999.0,51,-99.99,,,-99.99,,2013-06-12 18:43:00,
2013-06-12 14:53:00,82.0,62.0,29.69,WSW,248,2.0,-999.0,51,-99.99,,,-99.99,,2013-06-12 18:53:00,
2013-06-12 15:02:00,83.0,61.0,29.69,NW,311,2.0,-999.0,48,-99.99,,,-99.99,,2013-06-12 19:02:00,
2013-06-12 15:11:00,83.0,61.0,29.69,NW,311,2.0,-999.0,48,-99.99,,,-99.99,,2013-06-12 19:11:00,
2013-06-12 15:22:00,83.0,61.0,29.69,NW,311,2.0,-999.0,48,-99.99,,,-99.99,,2013-06-12 19:22:00,
2013-06-12 15:32:00,83.0,61.0,29.69,NNE,22,2.0,-999.0,47,-99.99,,,-99.99,,2013-06-12 19:32:00,
2013-06-12 15:42:00,83.0,59.0,29.69,North,355,2.0,-999.0,44,-99.99,,,-99.99,,2013-06-12 19:42:00,
2013-06-12 15:52:00,83.0,59.0,29.69,North,355,2.0,-999.0,44,-99.99,,,-99.99,,2013-06-12 19:52:00,
2013-06-12 16:02:00,83.0,59.0,29.69,North,355,2.0,-999.0,44,-99.99,,,-99.99,,2013-06-12 20:02:00,
2013-06-12 16:11:00,83.0,59.0,29.69,North,355,2.0,-999.0,44,-99.99,,,-99.99,,2013-06-12 20:11:00,
2013-06-12 16:22:00,84.0,60.0,29.67,North,355,2.0,-999.0,45,-99.99,,,-99.99,,2013-06-12 20:22:00,
2013-06-12 16:33:00,84.0,61.0,29.68,NW,309,2.0,-999.0,46,-99.99,,,-99.99,,2013-06-12 20:33:00,
2013-06-12 16:43:00,83.0,59.0,29.68,NNW,338,2.0,-999.0,45,-99.99,,,-99.99,,2013-06-12 20:43:00,
2013-06-12 16:54:00,82.0,61.0,29.68,NW,317,1.0,-999.0,50,-99.99,,,-99.99,,2013-06-12 20:54:00,
2013-06-12 17:01:00,82.0,61.0,29.68,NW,317,1.0,-999.0,50,-99.99,,,-99.99,,2013-06-12 21:01:00,
2013-06-12 17:12:00,81.0,61.0,29.67,NW,310,1.0,-999.0,50,-99.99,,,-99.99,,2013-06-12 21:12:00,
2013-06-12 17:22:00,81.0,61.0,29.67,NW,310,1.0,-999.0,50,-99.99,,,-99.99,,2013-06-12 21:22:00,
2013-06-12 17:33:00,81.0,61.0,29.67,NW,310,1.0,-999.0,50,-99.99,,,-99.99,,2013-06-12 21:33:00,
2013-06-12 17:43:00,80.0,61.0,29.69,NE,34,0.0,-999.0,52,-99.99,,,-99.99,,2013-06-12 21:43:00,
2013-06-12 17:53:00,80.0,61.0,29.69,NE,34,0.0,-999.0,52,-99.99,,,-99.99,,2013-06-12 21:53:00,
2013-06-12 18:01:00,80.0,61.0,29.70,West,277,0.0,-999.0,53,-99.99,,,-99.99,,2013-06-12 22:01:00,
2013-06-12 18:11:00,80.0,61.0,29.70,West,268,0.0,-999.0,52,-99.99,,,-99.99,,2013-06-12 22:11:00,
2013-06-12 18:22:00,80.0,61.0,29.70,West,268,0.0,-999.0,52,-99.99,,,-99.99,,2013-06-12 22:22:00,
2013-06-12 18:33:00,79.0,60.0,29.70,NNW,346,1.0,-999.0,52,-99.99,,,-99.99,,2013-06-12 22:33:00,
2013-06-12 18:43:00,79.0,60.0,29.70,SW,233,0.0,-999.0,53,-99.99,,,-99.99,,2013-06-12 22:43:00,
2013-06-12 18:52:00,79.0,60.0,29.70,SW,233,0.0,-999.0,53,-99.99,,,-99.99,,2013-06-12 22:52:00,
2013-06-12 19:02:00,78.0,59.0,29.70,SSW,208,1.0,-999.0,53,-99.99,,,-99.99,,2013-06-12 23:02:00,
2013-06-12 19:12:00,78.0,60.0,29.70,NW,323,0.0,-999.0,54,-99.99,,,-99.99,,2013-06-12 23:12:00,
2013-06-12 19:22:00,78.0,60.0,29.70,NW,323,0.0,-999.0,54,-99.99,,,-99.99,,2013-06-12 23:22:00,
2013-06-12 19:32:00,78.0,61.0,29.70,NNW,338,0.0,-999.0,55,-99.99,,,-99.99,,2013-06-12 23:32:00,
2013-06-12 19:42:00,77.0,61.0,29.70,NNW,333,0.0,-999.0,58,-99.99,,,-99.99,,2013-06-12 23:42:00,
2013-06-12 19:52:00,77.0,61.0,29.70,NNW,333,0.0,-999.0,58,-99.99,,,-99.99,,2013-06-12 23:52:00,
2013-06-12 20:02:00,76.0,62.0,29.71,NNW,333,0.0,-999.0,62,-99.99,,,-99.99,,2013-06-13 00:02:00,
2013-06-12 20:12:00,76.0,62.0,29.71,NNW,333,0.0,-999.0,62,-99.99,,,-99.99,,2013-06-13 00:12:00,
2013-06-12 20:22:00,75.0,62.0,29.72,NNW,333,0.0,-999.0,64,-99.99,,,-99.99,,2013-06-13 00:22:00,
2013-06-12 20:33:00,74.0,62.0,29.72,NNW,333,0.0,-999.0,67,-99.99,,,-99.99,,2013-06-13 00:33:00,
2013-06-12 20:42:00,74.0,62.0,29.72,NNW,333,0.0,-999.0,67,-99.99,,,-99.99,,2013-06-13 00:42:00,
2013-06-12 20:52:00,74.0,62.0,29.72,NNW,333,0.0,-999.0,67,-99.99,,,-99.99,,2013-06-13 00:52:00,
2013-06-12 21:01:00,74.0,62.0,29.72,NNW,333,0.0,-999.0,67,-99.99,,,-99.99,,2013-06-13 01:01:00,
2013-06-12 21:12:00,74.0,62.0,29.72,NNW,333,0.0,-999.0,67,-99.99,,,-99.99,,2013-06-13 01:12:00,
2013-06-12 21:22:00,70.0,62.0,29.74,SSW,198,0.0,-999.0,75,-99.99,,,-99.99,,2013-06-13 01:22:00,
2013-06-12 21:33:00,70.0,62.0,29.74,SSW,198,0.0,-999.0,75,-99.99,,,-99.99,,2013-06-13 01:33:00,
2013-06-12 21:43:00,70.0,62.0,29.74,SSW,198,0.0,-999.0,75,-99.99,,,-99.99,,2013-06-13 01:43:00,
2013-06-12 21:53:00,68.0,61.0,29.74,SSW,198,0.0,-999.0,79,-99.99,,,-99.99,,2013-06-13 01:53:00,
2013-06-12 22:02:00,67.0,61.0,29.75,SSW,198,0.0,-999.0,80,-99.99,,,-99.99,,2013-06-13 02:02:00,
2013-06-12 22:12:00,67.0,61.0,29.75,SSW,198,0.0,-999.0,80,-99.99,,,-99.99,,2013-06-13 02:12:00,
2013-06-12 22:22:00,66.0,60.0,29.75,SSW,198,0.0,-999.0,82,-99.99,,,-99.99,,2013-06-13 02:22:00,
2013-06-12 22:33:00,66.0,61.0,29.75,SSW,198,0.0,-999.0,83,-99.99,,,-99.99,,2013-06-13 02:33:00,
2013-06-12 22:43:00,66.0,61.0,29.75,SSW,198,0.0,-999.0,83,-99.99,,,-99.99,,2013-06-13 02:43:00,
2013-06-12 22:52:00,65.0,60.0,29.74,SSW,198,0.0,-999.0,85,-99.99,,,-99.99,,2013-06-13 02:52:00,
2013-06-12 23:02:00,65.0,60.0,29.74,SSW,198,0.0,-999.0,85,-99.99,,,-99.99,,2013-06-13 03:02:00,
2013-06-12 23:12:00,65.0,60.0,29.74,SSW,198,0.0,-999.0,85,-99.99,,,-99.99,,2013-06-13 03:12:00,
2013-06-12 23:22:00,64.0,60.0,29.74,SSW,198,0.0,-999.0,86,-99.99,,,-99.99,,2013-06-13 03:22:00,
2013-06-12 23:31:00,64.0,60.0,29.73,SSW,198,0.0,-999.0,88,-99.99,,,-99.99,,2013-06-13 03:31:00,
2013-06-12 23:33:00,64.0,60.0,29.73,SSW,198,0.0,-999.0,86,-99.99,,,-99.99,,2013-06-13 03:33:00,
2013-06-12 23:43:00,64.0,60.0,29.73,SSW,198,0.0,-999.0,86,-99.99,,,-99.99,,2013-06-13 03:43:00,
2013-06-12 23:52:00,64.0,60.0,29.73,SSW,198,0.0,-999.0,88,-99.99,,,-99.99,,2013-06-13 03:52:00,